PDT,Max TemperatureF,Mean TemperatureF,Min TemperatureF,Max Dew PointF,MeanDew PointF,Min DewpointF,Max Humidity, Mean Humidity, Min Humidity, Max Sea Level PressureIn, Mean Sea Level PressureIn, Min Sea Level PressureIn, Max VisibilityMiles, Mean VisibilityMiles, Min VisibilityMiles, Max Wind SpeedMPH, Mean Wind SpeedMPH, Max Gust SpeedMPH,PrecipitationIn, CloudCover, Events, WindDirDegrees
2012-10-1,73,54,35,45,37,32,100,57,23,30.30,30.15,29.88,10,10,10,10,2,,0.00,0,,190
2012-10-2,69,55,41,45,33,12,87,47,21,30.17,29.93,29.87,10,10,3,28,7,40,0.00,2,Rain,245
2012-10-3,55,46,37,37,32,27,100,63,33,30.44,30.37,30.19,10,10,10,16,10,22,0.00,1,Rain,39
2012-10-4,55,42,30,30,25,18,81,57,23,30.37,30.33,30.29,10,10,10,15,11,22,0.00,0,,20
2012-10-5,55,39,23,28,24,18,100,64,23,30.43,30.37,30.32,10,10,10,9,2,,0.00,0,,67
2012-10-6,57,40,24,32,28,23,93,68,33,30.39,30.31,30.22,10,10,0,8,1,,0.00,0,,87
2012-10-7,66,46,26,36,31,27,100,69,26,30.22,30.11,29.98,10,10,10,12,1,,0.00,0,,203
2012-10-8,64,47,30,43,35,30,100,76,34,30.00,29.95,29.88,10,10,10,12,1,,0.00,2,,123
2012-10-9,62,47,32,41,36,32,100,73,37,30.10,30.04,29.97,10,10,10,12,2,,0.00,0,,44
2012-10-10,66,49,32,43,36,32,100,77,34,30.03,29.96,29.88,10,10,4,10,1,,0.00,0,,120
2012-10-11,64,48,32,41,36,32,100,76,37,30.02,29.93,29.83,10,10,5,13,1,17,0.00,0,,59
2012-10-12,64,47,30,41,36,30,100,70,34,29.91,29.83,29.80,10,10,2,7,1,,0.00,1,,219
2012-10-13,55,52,50,50,48,41,100,87,67,30.16,30.07,29.91,10,10,10,9,4,,0.00,8,Rain,213
2012-10-14,60,56,51,54,51,46,100,87,63,30.16,30.04,29.91,10,10,5,9,3,,0.00,8,Rain,209
2012-10-15,62,56,51,54,52,48,100,89,63,29.91,29.83,29.59,10,9,4,8,5,,0.00,8,Rain,215
2012-10-16,59,47,35,55,40,23,100,71,30,30.01,29.67,29.39,10,10,3,17,8,29,0.00,5,Rain,230
2012-10-17,53,43,33,32,31,27,93,68,35,30.29,30.19,30.02,10,10,10,12,7,18,0.00,0,,225
2012-10-18,57,44,32,37,34,32,100,83,38,30.29,30.14,29.88,10,10,10,8,1,,0.00,1,,4
2012-10-19,59,49,39,50,44,37,100,82,63,29.87,29.73,29.57,10,10,5,16,3,25,0.00,8,Rain,219
2012-10-20,53,42,32,41,32,21,100,65,33,29.83,29.71,29.58,10,10,7,22,7,36,0.00,6,Rain,236
2012-10-21,44,38,32,37,33,32,100,84,61,29.91,29.88,29.83,10,10,0,8,3,,0.00,7,Fog-Rain,242
2012-10-22,42,37,32,36,33,32,100,87,66,29.87,29.69,29.57,10,9,0,22,9,32,0.00,4,Fog-Rain,30
2012-10-23,41,37,33,37,36,34,100,97,87,29.96,29.83,29.69,10,10,5,6,1,,0.00,8,Rain,359
2012-10-24,44,38,32,37,35,32,100,90,71,30.11,30.02,29.97,10,10,0,13,5,,0.00,7,Fog-Rain,33
2012-10-25,41,36,32,37,35,32,100,96,76,30.41,30.29,30.12,10,9,3,10,4,16,0.00,8,Rain,353
2012-10-26,42,38,33,36,34,32,100,91,66,30.39,30.23,30.08,10,9,4,6,3,,0.00,7,Rain,226
2012-10-27,41,37,33,41,37,34,100,99,93,30.08,30.01,29.89,10,6,3,6,2,,0.00,8,Rain,199
2012-10-28,48,42,37,46,41,37,100,100,93,29.94,29.89,29.85,10,6,0,5,1,,0.00,7,Fog-Rain,181
2012-10-29,59,50,41,52,45,41,100,92,67,30.01,29.88,29.81,10,8,2,12,3,17,0.00,7,Rain,212
2012-10-30,48,44,41,48,46,41,100,98,82,30.03,29.96,29.90,10,7,2,7,2,,0.00,7,Rain,181
2012-10-31,53,48,44,52,47,45,100,98,82,29.94,29.84,29.76,10,9,4,17,5,22,0.00,4,Rain,32